Location: City of Moscow
(46.7306°N, 116.9989°W)
Time: 05:39:08
(UTC+00:00)

ESTCUBE 1 - Visible Passes

Search period start: 19 April 2026 00:00
Search period end: 29 April 2026 00:00
Orbit: 620 x 631 km, 97.7° (Epoch: 18 April)

Date Brightness Start Highest point End Pass type
(mag) Time Alt. Az. Time Alt. Az. Time Alt. Az.
19 Apr ? 03:55:32 17° SE 03:58:35 46° ENE 04:02:48 10° N visible
19 Apr ? 05:32:49 14° SW 05:35:03 19° W 05:38:15 10° NW visible
20 Apr ? 04:14:36 21° SSE 04:17:28 72° ENE 04:21:52 10° N visible
20 Apr ? 05:52:16 10° WSW 05:54:12 13° W 05:56:09 10° WNW visible
21 Apr ? 04:33:40 23° S 04:36:24 74° WSW 04:40:48 10° NNW visible
22 Apr ? 03:16:13 10° ESE 03:19:28 21° ENE 03:22:42 10° NNE visible
22 Apr ? 04:52:44 21° SSW 04:55:24 46° W 04:59:39 10° NNW visible
23 Apr ? 03:34:31 10° SE 03:38:14 30° ENE 03:42:04 10° N visible
23 Apr ? 05:11:47 17° SSW 05:14:26 30° W 05:18:19 10° NNW visible
24 Apr ? 03:53:34 14° SE 03:57:04 45° ENE 04:01:15 10° N visible
24 Apr ? 05:30:51 12° SW 05:33:31 20° W 05:36:46 10° NW visible
25 Apr ? 04:12:38 17° SSE 04:15:56 70° ENE 04:20:18 10° N visible
25 Apr ? 05:50:37 10° WSW 05:52:39 13° W 05:54:43 10° WNW visible
26 Apr ? 04:31:41 18° S 04:34:51 76° WSW 04:39:16 10° NNW visible
27 Apr ? 04:50:44 17° SSW 04:53:50 48° W 04:58:05 10° NNW visible
28 Apr ? 03:32:54 10° SE 03:36:40 29° ENE 03:40:27 10° N visible
28 Apr ? 05:09:47 14° SSW 05:12:51 31° W 05:16:45 10° NNW visible
